This is the latest recevied weather packets stored in our database for station/object K0NV. If no packets are shown the sender has not sent any weather packets the latest 10 day(s).
| Time | Temp. | Humidity | Pressure | Rain* | Wind** | Luminosity | Snow |
|---|---|---|---|---|---|---|---|
| 1777589510 | 18.89° C | 46% | 1017.2 hPa | 0 mm | - | 161 W/m² | - |
| 1777589204 | 18.33° C | 47% | 1017 hPa | 0 mm | - | 154 W/m² | - |
| 1777588900 | 18.33° C | 45% | 1017.2 hPa | 0 mm | - | 181 W/m² | - |
| 1777588596 | 18.89° C | 47% | 1017 hPa | 0 mm | - | 160 W/m² | - |
| 1777588291 | 18.89° C | 46% | 1017.2 hPa | 0 mm | - | 203 W/m² | - |
| 1777587987 | 18.89° C | 48% | 1017.2 hPa | 0 mm | - | 230 W/m² | - |
| 1777587683 | 18.33° C | 47% | 1017.2 hPa | 0 mm | - | 237 W/m² | - |
| 1777587378 | 18.33° C | 48% | 1017.2 hPa | 0 mm | - | 202 W/m² | - |
| 1777587074 | 18.33° C | 47% | 1017.1 hPa | 0 mm | - | 209 W/m² | - |
| 1777586770 | 18.33° C | 47% | 1017.3 hPa | 0 mm | - | 191 W/m² | - |
| 1777586466 | 18.33° C | 47% | 1017.1 hPa | 0 mm | - | 162 W/m² | - |
| 1777586161 | 18.33° C | 47% | 1017 hPa | 0 mm | - | 196 W/m² | - |
| 1777585858 | 18.89° C | 46% | 1017.2 hPa | 0 mm | - | 239 W/m² | - |
| 1777585553 | 18.89° C | 46% | 1017.1 hPa | 0 mm | - | 377 W/m² | - |
| 1777585249 | 18.89° C | 46% | 1017.3 hPa | 0 mm | - | 266 W/m² | - |
| 1777584944 | 19.44° C | 46% | 1017.1 hPa | 0 mm | - | 225 W/m² | - |
| 1777584641 | 19.44° C | 43% | 1017.3 hPa | 0 mm | - | 327 W/m² | - |
| 1777584338 | 19.44° C | 44% | 1017.2 hPa | 0 mm | - | 334 W/m² | - |
| 1777584034 | 18.89° C | 45% | 1017.6 hPa | 0 mm | - | 358 W/m² | - |
| 1777583729 | 18.33° C | 46% | 1017.3 hPa | 0 mm | - | 316 W/m² | - |
| 1777583428 | 17.22° C | 46% | 1017.6 hPa | 0 mm | - | 390 W/m² | - |
| 1777583127 | 17.22° C | 46% | 1017.5 hPa | 0 mm | - | 248 W/m² | - |
| 1777582823 | 18.89° C | 45% | 1017.6 hPa | 0 mm | - | 313 W/m² | - |
| 1777582520 | 19.44° C | 46% | 1017.7 hPa | 0 mm | - | 324 W/m² | - |
| 1777582210 | 19.44° C | 44% | 1017.9 hPa | 0 mm | - | 298 W/m² | - |
* Rain latest hour (hover to see other rain measurements)
** Current wind speed in m/s (hover to see current wind gust speed)